Temp
-17 -17 -17 -17 -17 -16 -16 -16 -16 -15 -15 -14 -14 -13 -13 -13 -12 -12 -12 -12 -12 -12 -12 -11 -11 -12 -13 -15 -15 -15 -14 -14 -14 -14 -14 -13 -13 -13 -13 -13 -13 -13 -14 -14
-17 -17 -17 -17 -16 -16 -16 -16 -16 -16 -15 -14 -14 -14 -13 -13 -13 -13 -12 -12 -12 -12 -12 -12 -12 -13 -14 -15 -15 -14 -14 -14 -14 -14 -13 -13 -13 -13 -13 -13 -13 -13 -13 -13
-17 -17 -17 -17 -17 -16 -16 -17 -16 -16 -15 -15 -14 -14 -14 -13 -13 -13 -13 -12 -12 -12 -12 -12 -12 -13 -14 -14 -14 -14 -14 -14 -14 -14 -13 -13 -12 -12 -12 -12 -13 -13 -13 -13
-17 -17 -17 -17 -17 -17 -17 -16 -16 -16 -16 -15 -14 -14 -14 -13 -13 -13 -13 -13 -12 -12 -12 -12 -12 -13 -14 -14 -14 -14 -14 -14 -14 -13 -13 -13 -12 -12 -12 -12 -12 -13 -13 -13
-17 -17 -17 -17 -17 -17 -17 -16 -16 -16 -16 -15 -15 -14 -14 -14 -13 -13 -13 -13 -13 -12 -12 -12 -12 -13 -14 -14 -15 -14 -14 -13 -13 -13 -13 -12 -12 -12 -12 -13 -13 -13 -13 -14
-18 -17 -17 -17 -16 -17 -16 -16 -16 -16 -16 -15 -15 -15 -15 -14 -14 -14 -13 -13 -13 -13 -12 -13 -13 -13 -13 -13 -13 -14 -14 -13 -13 -13 -13 -13 -13 -13 -13 -13 -13 -13 -14 -14
-18 -18 -17 -17 -16 -16 -16 -16 -16 -16 -16 -16 -15 -15 -14 -14 -14 -14 -14 -13 -13 -13 -13 -13 -12 -13 -13 -13 -13 -13 -13 -13 -13 -13 -13 -13 -13 -13 -13 -14 -14 -14 -14 -14
-19 -18 -18 -17 -17 -16 -16 -16 -16 -16 -16 -16 -15 -15 -15 -15 -14 -14 -14 -14 -13 -13 -13 -13 -13 -13 -13 -13 -13 -13 -13 -13 -13 -13 -13 -13 -14 -14 -14 -14 -14 -14 -14 -15
-19 -18 -18 -17 -17 -17 -16 -16 -16 -16 -16 -16 -15 -15 -15 -15 -14 -14 -14 -14 -13 -13 -13 -13 -13 -13 -13 -13 -13 -13 -14 -14 -14 -14 -14 -14 -14 -14 -14 -14 -14 -14 -15 -15
-19 -18 -18 -18 -17 -17 -17 -16 -16 -16 -16 -16 -16 -16 -15 -15 -15 -15 -14 -14 -14 -14 -14 -13 -13 -13 -13 -13 -14 -14 -14 -14 -14 -14 -14 -14 -14 -14 -14 -14 -15 -15 -15 -15
-19 -19 -18 -18 -17 -17 -17 -16 -16 -16 -16 -16 -16 -16 -15 -15 -15 -15 -15 -14 -14 -14 -14 -13 -13 -13 -13 -14 -14 -14 -14 -14 -14 -14 -14 -14 -14 -15 -15 -15 -15 -15 -16 -16
-19 -19 -19 -18 -18 -17 -17 -17 -17 -17 -16 -16 -16 -16 -16 -15 -15 -15 -15 -14 -14 -14 -14 -14 -14 -14 -14 -14 -14 -14 -14 -14 -14 -14 -15 -15 -15 -15 -15 -15 -15 -16 -16 -16
-19 -19 -19 -19 -18 -18 -17 -17 -17 -17 -17 -16 -16 -16 -16 -16 -16 -15 -15 -15 -14 -14 -14 -14 -14 -14 -14 -14 -14 -14 -14 -14 -14 -14 -15 -15 -15 -15 -15 -15 -16 -16 -16 -16
-20 -20 -19 -19 -18 -18 -18 -17 -17 -17 -17 -16 -16 -16 -16 -16 -16 -16 -15 -15 -15 -14 -14 -14 -14 -14 -14 -14 -14 -14 -14 -14 -14 -14 -15 -15 -15 -15 -16 -16 -16 -16 -16 -17
-20 -20 -20 -19 -19 -19 -18 -18 -17 -17 -17 -17 -17 -16 -16 -16 -16 -16 -15 -15 -15 -15 -14 -14 -14 -14 -14 -14 -14 -14 -14 -14 -14 -15 -15 -15 -15 -15 -16 -16 -16 -16 -17 -17
-21 -21 -20 -20 -19 -19 -18 -18 -17 -18 -17 -17 -17 -17 -16 -16 -16 -16 -16 -15 -15 -15 -15 -15 -14 -14 -14 -14 -14 -14 -14 -14 -15 -15 -15 -15 -15 -16 -16 -16 -16 -17 -17 -17
-21 -21 -21 -20 -20 -19 -19 -18 -18 -17 -17 -17 -17 -17 -17 -16 -16 -16 -16 -16 -15 -15 -15 -15 -15 -14 -14 -14 -14 -14 -15 -15 -15 -15 -15 -15 -15 -16 -16 -16 -17 -17 -17 -18
-22 -22 -21 -20 -20 -20 -19 -19 -18 -18 -17 -17 -17 -17 -17 -17 -16 -16 -16 -16 -16 -15 -15 -15 -15 -15 -14 -14 -15 -15 -15 -15 -15 -15 -15 -15 -16 -16 -16 -17 -17 -17 -18 -18
-22 -22 -21 -21 -21 -20 -19 -19 -19 -18 -18 -17 -17 -17 -17 -17 -17 -16 -16 -16 -16 -16 -15 -15 -15 -15 -15 -15 -15 -15 -15 -15 -15 -15 -16 -16 -16 -16 -17 -17 -17 -18 -18 -19
-22 -22 -21 -21 -21 -20 -20 -20 -19 -19 -18 -17 -18 -18 -17 -17 -17 -17 -16 -16 -16 -16 -16 -16 -15 -15 -15 -15 -15 -15 -15 -15 -16 -16 -16 -16 -16 -17 -17 -17 -18 -18 -19 -19
-23 -22 -21 -21 -22 -22 -21 -19 -19 -18 -17 -17 -18 -18 -18 -17 -17 -17 -17 -17 -16 -16 -16 -16 -16 -16 -16 -16 -16 -16 -16 -16 -16 -16 -16 -17 -17 -17 -17 -18 -18 -19 -19 -20
-22 -22 -21 -22 -22 -21 -20 -20 -19 -18 -17 -17 -18 -18 -18 -18 -18 -17 -17 -17 -17 -16 -16 -16 -16 -16 -16 -16 -16 -16 -16 -16 -16 -17 -17 -17 -17 -17 -18 -18 -19 -19 -19 -20
-22 -22 -23 -23 -23 -21 -20 -18 -18 -17 -17 -17 -17 -18 -18 -18 -18 -18 -17 -17 -17 -17 -17 -17 -17 -16 -16 -16 -16 -16 -16 -17 -17 -17 -17 -17 -18 -18 -18 -19 -19 -19 -20 -20
-23 -23 -23 -23 -21 -20 -19 -18 -18 -17 -17 -18 -18 -18 -18 -18 -18 -18 -18 -17 -17 -17 -17 -17 -17 -17 -17 -17 -17 -17 -17 -17 -17 -17 -17 -18 -18 -18 -19 -19 -19 -20 -20 -20
-23 -23 -23 -22 -20 -19 -19 -18 -18 -18 -18 -19 -19 -19 -19 -19 -18 -18 -18 -18 -17 -17 -17 -18 -18 -17 -17 -17 -17 -17 -17 -17 -18 -18 -18 -18 -19 -19 -19 -20 -20 -20 -20 -20
-24 -23 -22 -21 -20 -20 -19 -19 -19 -19 -19 -19 -19 -19 -19 -18 -18 -18 -18 -17 -17 -18 -18 -18 -18 -18 -18 -18 -18 -18 -18 -18 -18 -18 -18 -19 -19 -20 -20 -20 -20 -20 -21 -21
-24 -23 -22 -21 -21 -20 -20 -20 -19 -20 -19 -19 -19 -19 -19 -18 -18 -18 -18 -18 -18 -18 -18 -18 -18 -18 -18 -18 -18 -18 -18 -19 -19 -19 -19 -19 -20 -20 -20 -20 -21 -21 -21 -21
Height
5655 5668 5679 5688 5699 5708 5715 5723 5729 5736 5741 5749 5754 5759 5762 5768 5773 5778 5782 5786 5789 5791 5792 5793 5793 5793 5793 5795 5797 5799 5800 5802 5803 5804 5804 5805 5805 5804 5804 5803 5802 5799 5797 5793
5646 5658 5671 5681 5692 5700 5709 5716 5724 5729 5734 5742 5748 5753 5756 5762 5768 5773 5777 5782 5785 5787 5789 5790 5789 5790 5791 5793 5794 5796 5797 5799 5799 5801 5802 5801 5800 5800 5799 5797 5795 5792 5791 5787
5637 5650 5662 5674 5685 5693 5702 5710 5717 5724 5729 5736 5742 5746 5750 5757 5762 5768 5773 5777 5781 5783 5785 5786 5786 5787 5788 5790 5792 5793 5794 5796 5797 5798 5798 5798 5796 5795 5793 5791 5789 5786 5785 5782
5629 5642 5653 5665 5676 5686 5695 5703 5711 5719 5724 5731 5737 5740 5746 5752 5758 5764 5769 5774 5777 5779 5781 5782 5783 5783 5784 5787 5789 5790 5792 5793 5794 5795 5794 5794 5792 5791 5789 5787 5786 5784 5782 5779
5620 5634 5644 5657 5669 5679 5689 5697 5706 5713 5719 5726 5731 5736 5742 5748 5754 5759 5765 5770 5773 5775 5777 5779 5779 5780 5781 5783 5785 5787 5789 5790 5791 5791 5792 5791 5790 5788 5786 5785 5783 5781 5778 5776
5611 5626 5639 5651 5662 5672 5682 5690 5700 5707 5713 5721 5726 5732 5737 5742 5747 5754 5760 5765 5768 5771 5772 5774 5776 5776 5778 5780 5783 5785 5787 5788 5789 5789 5788 5788 5787 5785 5783 5782 5780 5778 5775 5773
5602 5618 5632 5644 5656 5666 5676 5685 5694 5701 5709 5716 5721 5727 5732 5737 5743 5750 5755 5760 5764 5768 5768 5770 5772 5773 5776 5779 5782 5784 5785 5785 5785 5785 5785 5785 5784 5782 5780 5779 5777 5775 5773 5769
5593 5610 5625 5637 5650 5660 5670 5679 5688 5695 5704 5710 5717 5722 5727 5734 5739 5746 5751 5756 5760 5764 5766 5768 5770 5772 5776 5778 5780 5781 5782 5783 5783 5783 5782 5782 5781 5779 5778 5776 5775 5772 5769 5766
5585 5602 5617 5630 5643 5654 5665 5674 5683 5691 5699 5705 5711 5716 5723 5729 5735 5741 5747 5751 5756 5760 5763 5765 5768 5771 5773 5776 5778 5779 5780 5780 5781 5780 5779 5779 5778 5776 5775 5773 5771 5768 5765 5762
5577 5595 5611 5624 5636 5648 5659 5669 5678 5685 5693 5699 5706 5712 5719 5725 5731 5737 5741 5746 5752 5755 5759 5762 5765 5768 5771 5773 5775 5777 5778 5778 5778 5777 5776 5776 5774 5773 5772 5771 5771 5765 5762 5758
5570 5588 5604 5618 5630 5642 5653 5663 5672 5681 5688 5694 5702 5708 5715 5721 5727 5732 5738 5743 5748 5751 5755 5759 5762 5765 5768 5771 5772 5774 5775 5776 5776 5774 5773 5774 5772 5771 5770 5768 5764 5760 5756 5752
5563 5582 5598 5612 5625 5636 5647 5658 5666 5674 5682 5690 5697 5704 5711 5717 5722 5728 5732 5737 5742 5747 5751 5756 5758 5762 5765 5768 5770 5771 5773 5773 5773 5773 5771 5770 5769 5768 5765 5762 5759 5755 5751 5747
5558 5576 5592 5606 5619 5632 5642 5652 5661 5669 5677 5684 5693 5700 5707 5713 5718 5723 5728 5733 5736 5742 5746 5751 5755 5759 5762 5764 5766 5767 5768 5769 5769 5769 5768 5767 5766 5764 5761 5758 5755 5751 5747 5743
5552 5570 5587 5601 5614 5626 5636 5647 5656 5665 5673 5680 5689 5695 5702 5708 5713 5718 5723 5728 5733 5738 5743 5747 5751 5755 5757 5760 5762 5763 5764 5764 5765 5764 5764 5763 5762 5760 5757 5754 5751 5747 5743 5738
5547 5565 5581 5595 5608 5620 5631 5642 5651 5660 5669 5676 5684 5690 5698 5703 5709 5714 5719 5724 5729 5734 5739 5743 5747 5749 5753 5755 5757 5758 5759 5760 5760 5760 5759 5758 5757 5755 5752 5749 5746 5742 5738 5734
5543 5560 5576 5589 5602 5615 5624 5637 5646 5655 5662 5671 5678 5686 5693 5699 5705 5710 5715 5720 5725 5730 5734 5738 5742 5744 5748 5750 5752 5753 5754 5755 5755 5755 5754 5753 5752 5750 5747 5745 5741 5738 5733 5729
5538 5556 5570 5584 5598 5611 5623 5633 5643 5649 5657 5666 5673 5681 5688 5694 5700 5706 5711 5716 5720 5725 5729 5733 5736 5739 5742 5745 5747 5748 5749 5750 5750 5750 5749 5749 5747 5745 5742 5740 5736 5732 5728 5724
5534 5550 5565 5580 5594 5605 5616 5627 5637 5645 5652 5661 5669 5677 5685 5691 5697 5703 5708 5712 5716 5720 5724 5728 5730 5733 5736 5739 5742 5742 5743 5744 5745 5745 5744 5743 5741 5739 5737 5734 5731 5727 5723 5719
5529 5545 5560 5572 5586 5601 5613 5622 5631 5640 5649 5657 5665 5674 5681 5687 5693 5698 5703 5707 5711 5715 5719 5722 5726 5728 5731 5734 5735 5736 5738 5739 5739 5739 5738 5737 5735 5734 5731 5728 5726 5722 5718 5714
5522 5537 5552 5569 5585 5597 5604 5614 5623 5635 5642 5652 5662 5669 5677 5685 5689 5694 5699 5702 5705 5710 5715 5717 5720 5724 5726 5728 5729 5731 5732 5733 5733 5733 5732 5731 5730 5728 5726 5723 5721 5717 5714 5710
5513 5531 5552 5571 5579 5589 5595 5606 5619 5630 5639 5649 5659 5666 5673 5679 5684 5689 5693 5697 5701 5705 5710 5711 5716 5719 5720 5722 5724 5725 5727 5727 5728 5727 5726 5726 5725 5723 5721 5718 5715 5713 5710 5706
5521 5542 5557 5564 5571 5580 5590 5604 5616 5628 5638 5648 5656 5663 5669 5675 5680 5685 5689 5692 5697 5700 5705 5707 5711 5713 5714 5716 5718 5720 5721 5721 5722 5721 5721 5720 5719 5717 5715 5713 5711 5708 5705 5702
5521 5533 5546 5555 5560 5573 5589 5602 5616 5627 5637 5647 5653 5659 5665 5671 5677 5682 5685 5688 5692 5697 5699 5703 5707 5708 5709 5711 5713 5714 5715 5715 5715 5715 5715 5714 5713 5711 5710 5708 5706 5703 5701 5697
5515 5529 5539 5550 5561 5578 5596 5610 5620 5628 5636 5643 5650 5655 5662 5668 5673 5677 5680 5684 5688 5690 5695 5699 5701 5702 5704 5706 5707 5708 5709 5709 5710 5710 5710 5709 5707 5706 5705 5703 5701 5699 5696 5693
5515 5528 5538 5551 5568 5584 5596 5606 5615 5623 5631 5640 5646 5652 5658 5663 5667 5672 5676 5679 5681 5686 5691 5693 5695 5697 5699 5701 5702 5703 5704 5705 5705 5705 5704 5704 5703 5702 5700 5699 5697 5694 5692 5688
5517 5529 5540 5559 5572 5583 5594 5603 5611 5619 5627 5634 5641 5647 5652 5657 5662 5667 5671 5675 5678 5683 5685 5687 5689 5692 5694 5695 5697 5698 5699 5700 5700 5699 5699 5699 5698 5697 5695 5694 5692 5690 5687 5684
5518 5531 5548 5562 5572 5582 5591 5600 5608 5614 5622 5630 5637 5642 5648 5653 5656 5662 5667 5672 5675 5677 5680 5682 5685 5687 5689 5691 5692 5693 5694 5694 5694 5694 5694 5693 5692 5692 5690 5689 5687 5685 5683 5680
Wind_Speed
60 57 52 46 44 42 41 41 37 35 36 33 31 31 32 31 30 28 25 21 17 14 12 12 12 9 6 6 9 11 12 13 14 14 15 17 19 21 22 24 25 28 31 37
61 59 54 50 47 45 41 42 35 34 34 33 31 30 32 31 30 29 26 22 19 15 13 13 11 8 7 7 8 10 14 13 12 12 15 17 19 20 23 27 29 30 29 32
61 58 55 54 50 47 41 39 36 34 34 31 30 30 32 31 30 29 27 23 19 16 14 13 11 9 12 8 8 10 11 10 10 11 13 19 22 23 22 22 23 24 23 22
64 59 55 53 50 48 43 37 35 34 32 31 32 30 31 30 29 27 27 23 21 18 14 14 11 12 15 17 13 14 13 12 11 14 17 14 13 12 14 16 16 16 18 20
66 62 57 53 49 47 46 43 40 36 33 34 32 29 28 29 28 27 26 24 22 19 16 15 12 14 18 22 20 18 17 14 12 9 9 10 12 14 15 15 14 16 18 20
69 64 59 54 50 47 45 44 40 38 35 35 33 30 28 29 29 28 28 26 23 20 18 15 12 15 15 17 17 14 11 10 9 9 11 13 14 14 14 14 16 17 19 22
70 65 61 56 52 47 44 42 40 39 36 36 34 32 32 29 27 28 27 26 26 22 20 14 13 15 12 11 10 9 8 7 10 12 14 13 13 12 14 15 16 18 20 22
74 67 62 58 53 49 44 41 39 39 38 37 35 35 33 28 27 28 26 27 26 22 19 14 14 13 12 12 10 7 5 8 10 12 13 12 11 12 13 14 16 18 21 24
77 70 63 58 54 50 45 42 39 39 39 38 36 35 32 28 26 27 26 29 27 22 20 18 16 15 13 11 9 6 7 8 10 12 12 11 11 11 12 14 16 21 24 26
78 72 65 60 56 52 47 43 40 40 39 38 37 34 32 28 25 26 27 29 28 26 23 21 19 16 13 11 8 8 8 8 10 12 12 10 11 12 14 16 19 22 25 27
80 74 68 62 58 54 49 44 41 40 40 39 37 34 31 28 26 26 26 29 29 27 24 22 21 18 15 12 11 11 10 9 10 11 11 10 11 13 15 18 21 24 27 29
82 75 70 64 60 55 50 46 43 42 41 40 38 34 31 29 27 26 27 31 31 28 24 24 23 19 16 14 14 13 12 11 10 11 11 11 13 15 18 21 24 27 29 31
83 76 71 66 61 56 51 47 44 43 43 41 39 36 32 29 28 27 27 31 32 28 25 23 21 18 18 17 15 16 14 13 12 12 13 14 15 18 21 24 26 29 31 33
82 75 71 66 62 57 53 49 45 44 44 42 40 36 33 30 28 28 28 31 31 28 26 24 22 21 20 17 17 16 15 15 14 15 15 16 18 20 22 25 28 30 31 33
81 76 70 66 63 58 54 50 47 45 45 43 40 38 34 32 29 29 28 27 30 31 29 26 24 23 22 20 19 17 17 17 17 17 17 19 21 22 24 27 29 31 31 32
80 75 71 67 63 59 56 51 48 46 46 43 41 38 35 33 31 28 29 27 28 31 31 30 28 27 25 24 22 20 20 20 19 19 20 22 23 23 27 28 30 31 31 31
78 74 70 67 63 58 54 52 49 48 47 44 41 38 35 33 32 28 28 28 26 27 30 31 30 29 28 26 24 23 23 21 20 21 22 23 23 26 29 29 30 30 30 31
76 73 70 67 62 58 55 51 47 48 48 45 41 38 35 31 30 29 26 27 28 27 25 26 27 28 28 26 24 24 23 22 22 22 23 24 25 27 28 30 30 29 29 29
77 74 71 66 61 59 55 53 51 50 47 44 40 35 32 32 31 28 27 27 27 28 26 26 26 24 25 22 23 23 23 22 22 23 24 24 26 27 28 28 28 27 26 29
78 75 72 65 61 59 57 55 53 48 47 44 40 36 33 30 30 30 29 28 28 26 26 27 25 23 23 22 22 22 22 23 23 23 24 25 26 27 27 27 26 23 24 27
80 76 70 64 62 55 53 58 54 53 50 45 40 37 34 31 30 30 31 29 28 26 25 26 24 21 23 22 21 22 22 22 23 23 24 24 25 26 25 24 22 21 24 27
77 73 67 65 66 65 62 55 54 51 48 43 40 36 35 30 29 28 28 28 28 27 25 26 21 21 23 22 22 22 23 23 22 23 23 24 24 24 24 22 21 22 24 28
75 73 69 59 64 64 61 59 55 50 45 40 38 36 34 31 29 27 27 28 28 27 26 22 18 21 21 21 21 22 22 22 21 21 22 23 23 23 21 20 20 22 26 29
73 71 65 70 65 65 58 53 50 47 43 40 37 34 32 30 28 28 28 26 26 27 24 20 21 21 20 20 20 20 20 21 21 21 22 24 22 20 20 20 21 24 26 30
72 70 62 67 64 60 56 53 50 47 43 37 36 35 32 30 30 30 28 26 27 24 23 23 22 21 20 20 20 19 19 19 20 21 21 18 18 19 19 20 22 24 27 26
68 64 64 62 58 55 52 49 47 44 41 39 37 36 34 33 32 31 29 26 23 19 21 22 23 22 22 21 19 19 19 18 18 17 18 20 20 19 21 21 23 25 23 24
61 59 58 56 54 52 50 48 45 44 41 38 37 36 35 34 33 31 27 21 19 19 19 19 18 17 17 17 17 17 18 18 19 20 21 21 20 19 20 23 25 22 22 23
Wind_Direction
208 210 210 217 214 216 219 216 215 226 231 230 228 230 225 219 220 219 218 220 224 237 255 270 283 293 259 216 228 246 255 255 258 262 269 272 275 282 285 286 290 293 297 301
208 209 209 210 213 215 220 212 214 220 220 215 218 221 221 217 217 217 217 216 221 231 246 262 270 270 225 209 230 246 245 254 263 262 265 275 279 284 287 290 294 297 303 304
208 208 208 210 213 215 218 215 210 217 215 210 213 216 218 216 216 216 215 216 218 225 242 256 259 240 214 209 228 232 226 226 252 273 284 292 293 295 297 299 303 306 311 315
207 207 207 210 211 213 216 216 213 218 213 210 210 213 216 216 215 215 215 214 218 225 239 253 250 244 225 215 220 217 225 237 257 281 294 296 303 310 309 307 308 310 313 315
206 206 206 209 209 210 214 215 219 218 213 212 210 213 215 217 213 214 215 215 219 225 237 247 251 244 233 220 221 224 240 260 277 274 283 297 301 304 303 308 310 314 319 321
206 206 205 206 208 209 213 215 216 215 210 211 212 210 213 217 213 213 215 215 220 225 233 246 247 238 232 229 229 235 250 247 255 282 297 300 307 303 309 315 319 321 323 323
204 204 204 204 207 210 211 213 212 213 208 211 212 210 214 217 217 212 215 216 220 225 231 236 233 222 212 195 186 196 223 271 296 301 300 298 300 308 315 320 322 322 321 322
202 203 203 203 206 210 210 211 208 208 206 209 209 210 213 216 220 218 213 215 220 224 228 221 214 198 187 185 194 210 252 279 286 292 295 298 305 312 321 324 319 318 323 325
202 202 203 202 204 209 209 209 207 205 206 209 211 210 212 213 219 219 214 213 219 222 221 210 202 198 199 205 214 234 254 271 286 293 296 306 311 317 322 317 318 322 324 325
201 201 202 201 202 206 208 207 207 204 205 208 212 211 211 211 218 220 216 211 218 222 217 209 208 210 216 214 221 236 253 271 290 294 299 304 308 314 313 317 322 323 325 325
200 199 201 201 201 204 207 206 206 203 204 209 211 211 210 209 216 218 217 214 217 222 219 214 215 220 224 217 224 235 252 268 290 296 300 303 307 312 317 323 327 329 330 330
199 199 199 200 201 204 205 205 205 203 204 210 211 212 210 210 215 218 217 216 218 222 221 218 223 219 218 222 228 237 249 264 286 294 297 299 310 316 321 325 329 331 330 331
198 198 199 199 200 202 205 206 204 203 204 210 211 211 211 212 215 217 219 217 219 221 221 218 218 217 225 232 235 239 251 262 277 289 292 300 308 315 320 325 327 327 328 330
197 197 198 199 200 201 204 207 206 205 205 210 211 212 212 212 214 216 220 219 219 219 220 220 222 225 232 238 243 248 256 263 271 282 292 300 305 311 319 321 322 324 326 326
196 196 197 199 200 201 203 205 206 206 206 209 211 212 212 212 214 217 220 223 221 220 222 224 226 232 239 245 250 257 261 264 271 280 288 293 300 309 315 314 319 320 322 324
195 194 196 198 200 201 203 201 206 205 207 209 212 211 212 214 215 217 220 224 223 223 225 228 232 238 244 249 253 258 261 264 270 277 283 290 298 304 305 313 316 319 321 322
192 193 195 197 200 201 203 204 204 206 207 208 210 211 214 215 215 217 219 223 225 226 228 232 235 241 246 250 255 259 260 263 267 272 281 289 293 297 305 311 314 317 319 324
189 191 193 196 198 199 200 203 207 207 207 208 209 211 213 215 217 218 221 224 225 227 228 232 237 242 246 250 254 254 256 261 267 275 282 287 292 298 304 309 313 315 319 326
187 189 191 194 197 198 200 200 206 207 208 208 207 209 211 215 216 218 220 226 228 228 230 232 237 241 246 248 249 253 259 265 270 276 281 286 291 297 303 308 311 315 319 326
185 187 190 191 195 198 197 200 205 204 206 207 206 207 210 214 218 218 219 224 229 229 231 234 236 239 247 249 252 256 260 265 270 275 279 284 289 297 302 306 310 312 319 328
183 186 188 190 191 192 199 201 201 203 204 204 203 206 208 211 215 217 220 224 229 233 233 238 239 241 247 250 252 256 261 267 271 275 279 285 291 297 300 306 308 312 319 328
183 186 187 191 195 198 201 199 200 201 203 204 203 206 210 213 215 218 222 227 230 233 234 240 241 244 248 251 254 260 264 268 274 277 282 289 293 296 301 304 308 312 318 327
182 184 184 182 196 199 198 197 198 200 203 204 208 210 210 213 216 219 223 226 230 233 235 239 241 243 249 253 258 261 266 271 275 280 286 289 293 298 301 306 309 311 319 327
184 185 190 191 198 201 198 198 199 202 205 205 208 208 211 215 220 224 227 230 232 234 236 237 239 243 248 250 254 260 267 272 278 282 287 291 295 299 305 307 307 311 321 326
186 188 184 195 198 199 197 198 200 204 205 206 209 210 212 214 219 222 225 229 235 239 240 240 243 243 244 248 256 264 269 274 280 284 287 291 298 304 303 303 305 313 320 321
189 190 195 194 196 198 200 200 202 205 205 206 209 211 214 218 222 225 229 234 238 242 237 236 237 240 250 255 258 264 272 275 279 282 290 299 301 299 298 298 305 314 316 324
189 189 195 194 196 199 200 201 203 205 206 207 211 215 218 219 224 226 226 235 237 232 233 234 237 242 247 254 259 263 271 276 280 288 294 295 294 294 294 297 305 309 311 326